Vorticity
11 15 19 22 22 20 15 9 7 7 8 12 16 19 18 14 10 8 7 10 15 21 25 24 22 20 17 14 12 12 13 13 12 11 11 11 11 12 12 12 12 13 13 12 12 12 12 11 11 11 11 11 12 12 12 12 11 9 5 0 -3 -5 -6 -4 -2 -0 2 3 4 5 5 5 5 5 5 5 6 6 6 6 6 6 5 5 5 5
1 6 11 14 15 14 11 7 5 4 3 4 8 12 13 13 11 9 6 5 7 9 11 10 9 9 8 7 7 9 11 9 8 6 6 7 7 8 8 8 7 7 7 7 6 6 5 4 4 3 3 4 5 5 6 6 5 4 1 -3 -5 -7 -7 -6 -4 -3 -2 -2 -2 -2 -1 -1 -1 -1 -1 -1 -1 -1 -2 -2 -2 -1 -0 1 3 4
-8 -7 -5 -7 -8 -6 -2 -1 -2 -5 -8 -9 -6 -2 1 4 7 8 9 7 5 3 0 -3 -5 -4 -3 -2 1 4 8 6 4 1 1 1 1 2 3 2 2 1 1 1 0 -0 -0 -1 -1 -2 -2 -1 -1 0 1 1 1 0 -1 -3 -4 -5 -4 -2 -1 -1 -0 -0 0 1 1 2 2 2 1 1 1 1 1 2 3 5 7 8 10 11
1 -5 -8 -16 -24 -27 -20 -11 -7 -7 -12 -13 -11 -8 -7 -6 -2 3 8 9 9 7 3 -5 -9 -10 -8 -5 -1 2 6 4 1 -1 -1 -2 -2 -2 -2 -2 -2 -2 -3 -3 -3 -3 -3 -3 -3 -3 -3 -3 -2 -2 -1 -1 -1 -1 -1 -2 -2 -2 -1 0 1 2 3 4 6 8 9 10 10 10 10 10 10 11 12 13 14 14 15 15 16 15
17 11 4 -5 -16 -25 -28 -20 -12 -7 -7 -4 1 4 2 -2 -4 -3 -0 2 6 9 8 3 -2 -4 -3 0 3 5 6 4 2 1 1 0 -0 -1 -1 -2 -2 -3 -3 -3 -3 -2 -2 -2 -2 -1 -1 -1 -1 -1 -1 -1 -1 -0 -0 -0 0 1 1 2 4 5 7 10 12 13 14 15 15 16 16 17 17 18 18 18 17 16 16 15 14 13
18 20 19 12 3 -6 -15 -17 -14 -8 -3 3 10 14 14 10 7 4 -0 -5 -5 -2 3 2 1 0 1 4 7 8 9 6 4 3 3 3 3 3 2 2 2 1 0 0 0 1 1 1 1 1 2 1 1 1 1 1 1 1 2 2 3 4 5 7 8 10 12 13 14 15 16 16 17 17 18 18 18 17 16 15 14 13 12 11 10 10
4 12 18 18 15 9 0 -5 -6 -3 1 6 9 11 11 12 13 14 12 4 -3 -7 -5 -5 -6 -5 -3 -0 3 5 7 6 5 3 3 4 3 3 3 4 4 4 3 3 3 3 4 4 4 4 4 4 4 4 4 4 5 5 6 7 8 9 10 11 12 13 13 14 14 14 15 15 15 15 15 14 14 13 12 12 11 10 10 9 9 9
-3 1 4 9 12 11 5 2 1 2 4 6 7 6 5 5 7 10 14 13 9 4 1 -1 -3 -5 -7 -5 -2 1 2 3 3 3 2 2 2 2 2 2 3 4 4 4 5 5 5 6 6 7 7 7 8 8 9 9 10 10 11 12 12 13 13 13 13 13 12 12 12 12 12 12 12 12 11 11 11 11 11 11 11 10 10 10 11 11
1 2 0 0 2 5 6 6 4 3 3 4 5 5 6 7 6 6 7 10 10 10 9 9 8 5 -0 -1 -0 1 3 3 4 5 6 5 5 5 4 4 4 5 5 6 6 7 7 8 9 9 10 10 11 11 12 12 12 13 13 13 12 12 12 12 11 11 10 10 10 10 10 10 10 10 10 11 11 11 12 12 12 13 13 13 13 13
7 7 8 3 -1 -3 -0 6 7 7 7 8 7 6 6 9 12 12 9 9 9 8 8 10 12 12 9 5 3 3 4 4 4 6 8 10 10 10 9 9 8 8 8 8 8 9 9 9 10 10 11 11 11 12 12 12 12 12 11 11 11 10 10 10 9 9 9 9 9 9 10 10 11 11 12 12 13 13 14 14 15 15 15 16 16 16
22 18 18 16 11 4 -1 3 6 8 10 12 12 10 7 7 9 12 14 15 15 14 13 12 12 12 14 12 10 7 6 7 6 4 4 8 11 12 13 13 12 12 11 11 11 10 10 10 10 10 10 10 11 11 11 11 10 10 10 10 10 10 10 10 10 10 10 10 11 12 12 13 13 14 15 15 16 16 16 17 17 17 18 18 18 18
33 32 30 31 29 25 19 15 13 12 11 13 15 14 12 9 8 9 12 15 16 18 19 19 18 17 17 17 17 15 13 12 10 7 4 5 6 8 11 13 14 15 15 15 14 13 11 11 10 10 10 11 11 11 11 10 10 10 10 11 11 11 11 12 12 13 13 14 15 15 16 16 16 17 17 18 18 18 19 19 19 19 20 20 20 19
29 30 32 34 35 35 34 31 27 23 20 18 19 19 19 15 13 12 12 13 14 14 16 19 20 20 20 21 21 21 19 19 18 15 12 9 6 5 6 9 11 13 15 17 17 16 15 14 14 13 12 12 13 13 12 12 13 13 13 13 14 14 15 16 16 17 17 18 18 18 18 19 19 19 19 20 20 20 20 20 20 20 20 20 20 19
20 21 22 24 26 28 29 30 30 29 27 25 25 25 26 25 23 21 20 20 17 15 14 16 17 17 17 19 21 21 22 22 22 22 22 19 16 12 9 8 7 7 9 12 14 16 17 18 18 18 16 16 16 15 15 15 16 16 16 17 17 18 19 19 20 20 20 20 20 20 20 20 20 21 21 21 21 21 21 20 20 19 19 18 18 17
15 15 16 16 17 18 20 21 23 24 25 25 26 27 29 30 29 28 27 26 23 20 18 18 18 17 16 15 16 18 19 19 20 21 23 24 23 21 19 16 12 8 6 7 9 10 12 14 17 18 19 19 19 19 19 19 18 18 19 19 20 20 21 21 21 21 21 21 21 21 21 21 21 21 21 21 20 20 19 18 18 17 16 16 15 15
15 15 15 15 15 15 16 16 17 18 19 20 21 22 23 24 24 24 25 25 24 23 22 22 22 21 19 16 15 16 17 17 17 17 18 20 21 21 21 22 21 17 12 12 10 9 8 9 11 14 17 19 20 20 21 20 20 20 20 20 21 21 21 21 21 21 21 21 21 20 21 21 20 20 20 19 18 18 17 16 16 15 14 14 14 13
16 16 16 16 16 16 16 16 16 16 16 16 17 17 18 18 18 19 20 20 21 21 21 21 21 21 21 19 17 16 17 18 17 16 15 17 17 17 18 20 21 20 19 18 17 15 13 12 12 12 14 15 16 18 19 20 21 21 21 21 22 22 22 21 20 20 20 20 20 20 20 20 19 18 18 17 16 16 15 15 15 14 14 14 14 14
18 17 17 17 17 17 16 16 16 16 16 17 17 17 17 17 17 17 18 18 18 18 18 18 18 18 18 18 17 16 16 18 18 16 15 16 16 15 16 18 19 20 19 19 20 20 20 19 18 17 16 15 15 15 16 17 19 20 21 22 22 22 21 21 20 20 20 20 20 19 19 18 17 17 16 16 15 15 15 14 14 14 14 14 15 15
20 19 18 18 17 17 16 16 16 16 16 16 16 16 17 17 17 17 17 17 17 17 17 17 17 17 17 16 16 15 15 16 17 17 16 16 16 16 15 17 19 19 19 18 19 20 22 22 22 21 20 18 17 16 16 16 16 17 18 19 20 20 20 20 20 20 20 19 18 17 16 16 15 14 13 13 13 13 13 13 13 13 13 13 14 14
22 21 20 19 18 18 17 17 16 16 15 15 15 15 15 15 16 16 16 16 16 16 16 16 16 16 16 16 16 16 15 16 17 17 16 16 16 15 15 16 17 18 18 18 18 18 19 20 20 20 20 20 19 18 18 17 17 17 17 17 16 16 16 16 16 16 15 14 13 12 12 11 10 9 9 9 9 10 10 10 11 11 12 12 12 13
20 20 20 20 19 18 17 16 16 16 15 15 14 14 14 14 14 14 14 14 14 14 15 15 15 15 15 15 15 15 15 16 16 16 16 16 16 16 15 15 16 16 17 17 16 16 16 16 16 16 16 17 17 17 17 17 17 16 16 15 14 13 12 12 11 10 9 8 8 7 6 6 6 6 7 7 8 9 9 10 11 12 12 12 13 13
16 16 16 17 18 18 17 16 16 15 15 14 14 14 13 13 13 13 12 12 13 13 13 14 14 14 14 14 15 15 15 15 16 16 16 16 16 16 15 15 16 16 16 16 15 15 15 15 15 14 14 14 15 15 15 15 14 14 13 12 11 10 10 9 8 7 6 5 5 5 5 5 5 6 7 8 9 10 10 11 12 12 13 13 13 14
13 13 13 14 14 15 15 15 15 15 15 15 14 14 13 13 13 13 12 13 13 13 13 13 13 13 14 14 14 14 15 15 16 16 16 16 16 15 14 15 15 16 15 15 14 14 14 14 14 14 13 13 14 13 13 12 12 11 10 10 9 8 8 7 7 6 5 5 5 5 5 6 7 8 8 9 10 11 11 12 12 13 13 14 14 14
12 12 11 12 12 12 13 13 14 14 15 15 15 15 15 15 14 14 14 14 14 14 14 14 14 15 15 15 15 15 16 16 16 16 16 16 15 14 13 14 14 14 14 13 13 13 13 13 13 13 13 13 12 12 11 10 10 9 8 8 7 7 7 6 6 6 6 6 6 7 7 8 9 9 10 11 11 12 12 12 13 13 14 14 14 15
13 12 11 11 11 12 12 13 13 14 14 15 16 16 16 16 16 16 16 17 17 16 16 16 16 16 16 16 16 16 16 15 15 15 15 14 14 13 12 12 12 12 12 12 12 12 12 12 12 12 12 12 11 10 9 9 8 8 7 7 7 7 7 7 7 7 7 7 7 8 8 9 9 10 11 11 11 12 12 12 13 13 14 14 15 15
16 14 13 12 12 12 12 13 14 14 15 15 16 16 16 17 17 17 18 18 18 17 16 17 17 16 15 15 15 15 14 14 14 13 12 12 11 11 11 11 11 11 11 11 11 11 11 11 11 10 10 10 9 9 8 8 7 7 7 7 7 7 7 7 7 7 7 7 7 8 9 9 10 10 11 11 11 11 12 12 12 13 14 15 15 16
20 19 18 16 15 14 14 14 14 14 15 16 16 16 16 16 16 16 17 16 16 15 15 15 15 14 13 14 13 13 12 12 12 11 10 10 9 10 9 9 9 9 10 10 10 10 10 10 9 9 9 9 9 8 8 8 8 8 7 7 7 7 7 7 7 7 7 7 7 8 9 9 10 10 10 11 11 11 11 12 13 14 15 16 16 16
24 24 24 22 21 19 17 16 15 15 15 15 15 16 15 15 15 15 15 14 13 14 14 14 13 12 12 11 11 10 10 10 10 9 8 8 9 9 8 8 8 9 9 9 8 8 9 8 8 8 8 8 8 8 8 8 8 8 8 8 7 7 7 7 7 7 7 7 8 8 9 10 10 10 10 10 10 11 11 12 14 15 16 17 16 16
25 26 27 27 27 26 24 22 20 18 16 16 15 15 15 15 15 15 14 13 13 14 14 13 12 11 10 10 9 9 10 9 9 8 8 8 8 8 8 8 8 8 8 8 8 8 8 8 7 7 7 7 8 8 8 8 8 8 8 8 7 7 7 7 7 7 7 8 9 9 10 11 11 11 11 10 11 11 12 13 15 16 17 16 15 14
20 22 24 26 27 28 28 27 26 24 22 20 18 16 16 15 15 15 14 14 14 14 14 13 12 12 11 10 10 10 10 10 9 9 8 8 9 9 8 9 9 8 8 8 7 7 7 7 7 7 8 8 8 8 8 8 8 8 8 7 7 7 7 6 7 7 8 9 10 11 11 12 12 11 11 11 11 12 13 14 16 16 16 14 13 11
14 16 18 20 22 24 26 27 27 27 27 25 23 21 19 18 17 16 16 15 15 15 14 14 14 13 13 12 12 11 11 11 11 10 9 9 10 10 9 9 9 9 9 8 8 7 7 7 8 8 9 9 9 9 9 8 8 8 8 7 7 7 7 7 8 9 10 11 12 12 13 12 12 11 11 11 12 13 14 15 15 15 14 12 10 8
10 11 13 14 16 18 20 22 24 25 26 27 27 26 24 23 21 20 18 18 17 16 16 16 15 15 15 14 14 13 13 13 13 12 11 11 11 11 10 10 10 10 10 9 9 8 8 8 8 9 9 10 10 9 9 9 8 8 8 7 7 7 8 9 9 11 12 13 13 14 13 13 12 11 11 12 12 14 14 15 14 14 12 9 8 7
7 8 9 10 12 13 15 17 18 20 22 24 26 26 27 26 25 23 22 21 20 19 18 18 18 17 17 17 16 16 15 15 15 15 14 13 13 13 12 12 11 11 11 11 10 9 9 9 9 9 9 10 10 9 9 9 8 8 8 8 8 9 9 11 12 13 14 14 14 14 13 12 12 12 12 12 13 14 14 14 13 12 10 8 7 6
5 5 6 7 8 9 11 12 14 16 18 20 22 24 25 26 26 26 25 24 22 21 20 20 19 19 19 19 19 18 18 18 18 17 16 16 16 15 15 14 14 13 13 12 12 12 11 11 11 10 10 10 10 10 9 9 9 9 9 9 10 11 12 13 14 15 15 15 15 14 13 12 12 11 12 12 13 13 13 12 11 10 8 7 6 7
3 4 4 5 5 6 7 8 10 11 13 15 17 19 21 22 24 25 25 25 24 23 22 21 20 19 19 19 19 19 20 20 20 20 19 19 18 18 18 18 17 16 15 15 14 14 14 14 13 12 11 11 11 11 10 10 10 10 11 12 12 13 14 15 16 16 16 15 14 13 12 11 11 11 11 11 11 11 11 11 10 9 8 7 6 7
3 3 3 3 3 4 5 5 6 7 9 10 12 14 15 17 19 21 22 23 24 24 23 22 22 20 20 19 19 19 20 20 20 20 20 20 20 20 21 21 20 19 18 18 17 16 16 15 15 14 13 13 12 12 12 12 12 13 14 14 15 15 16 16 16 16 15 14 13 12 11 10 10 10 10 10 10 10 9 9 9 9 8 8 8 8
2 2 2 2 2 3 3 3 4 5 6 7 8 10 11 13 15 16 18 19 21 22 23 23 23 23 22 21 20 20 20 20 20 20 20 20 20 20 20 21 21 21 20 20 20 19 18 17 17 16 15 14 13 12 13 13 14 14 15 15 16 16 16 16 16 15 14 13 12 11 10 9 9 9 8 8 8 9 9 9 9 9 10 9 9 10
2 2 1 1 1 2 2 2 3 3 4 5 6 7 8 9 11 12 14 15 17 18 19 20 21 22 22 22 22 22 22 22 21 21 20 19 18 17 17 17 18 18 18 19 19 19 18 18 17 16 15 14 13 13 12 13 13 14 15 15 15 16 16 15 15 14 13 12 11 10 9 9 8 8 8 8 9 10 11 11 12 12 12 12 11 11
1 1 1 0 0 1 1 1 1 1 2 2 3 4 5 6 8 9 11 12 13 14 16 16 17 18 18 19 19 20 20 21 21 20 20 19 18 17 15 15 14 14 14 15 15 16 16 16 15 14 13 12 12 12 12 12 12 12 13 14 14 14 14 14 13 12 11 11 10 9 9 9 8 8 9 10 11 12 13 14 14 14 14 13 12 12
2 2 1 1 1 0 0 0 -0 -0 -0 0 0 1 1 2 3 5 6 8 10 11 12 13 14 14 15 15 16 16 16 17 17 18 18 18 18 18 17 16 15 14 13 12 12 12 12 12 11 11 10 9 9 9 9 10 10 11 11 12 12 12 12 12 11 11 10 10 9 9 9 9 9 10 11 13 14 15 16 16 15 15 14 13 12 11
3 3 3 2 2 2 2 1 0 -0 -1 -1 -1 -1 -1 -1 -0 1 2 3 5 7 8 10 11 12 13 13 14 14 14 14 14 15 15 16 17 18 18 19 18 18 17 15 13 12 10 9 9 8 7 7 7 7 7 8 9 9 10 11 11 11 10 10 10 10 10 10 10 10 9 10 11 12 14 16 17 17 17 16 15 14 13 12 11 11
5 5 5 4 4 4 4 3 2 2 1 0 -0 -1 -1 -1 -1 -1 -1 -0 1 2 4 5 6 8 9 11 12 13 14 14 14 14 13 14 14 15 16 18 19 20 21 20 19 17 14 12 10 8 7 7 6 6 6 7 8 9 9 10 10 10 10 10 10 9 10 10 10 10 10 11 13 14 16 17 18 17 16 16 14 13 12 11 11 10
6 6 6 6 6 6 5 5 5 4 4 3 2 2 1 0 -1 -1 -1 -1 -1 -0 0 2 3 4 5 7 8 10 12 13 14 14 14 14 13 13 13 14 16 18 20 21 22 23 21 18 15 12 10 8 7 6 6 7 7 8 9 9 9 9 9 10 9 9 10 10 10 10 11 12 14 16 17 17 16 15 15 14 13 12 11 11 10 10
7 7 7 7 7 7 7 7 6 6 5 5 4 4 3 2 2 1 0 -0 -0 -1 -1 -0 0 1 2 3 5 6 8 10 12 13 14 14 14 13 13 13 13 14 15 17 20 23 25 23 21 18 15 12 9 8 7 7 7 7 8 8 9 9 9 9 9 9 10 10 11 12 12 14 15 16 16 16 15 14 13 12 12 11 11 10 10 9
7 7 7 7 7 7 7 7 7 6 6 6 6 5 5 5 4 3 2 2 1 1 0 -0 -1 -0 1 1 2 3 5 7 9 10 12 13 14 14 14 13 13 13 13 13 15 18 22 23 24 23 20 16 13 10 9 8 8 8 8 8 9 9 9 9 9 10 10 10 11 12 13 14 15 15 15 14 13 13 12 12 11 11 11 10 10 9
8 7 7 7 7 7 7 7 7 7 7 7 7 7 6 6 6 5 5 4 3 2 2 1 0 0 0 0 0 1 3 4 6 8 10 12 13 14 14 14 13 13 12 12 13 14 16 19 22 24 23 20 17 14 12 10 9 9 8 8 8 9 9 9 10 10 10 11 11 12 13 14 15 15 14 13 13 12 12 11 11 10 10 10 9 9
8 8 8 8 8 8 8 8 7 8 8 7 7 7 7 7 7 7 7 6 5 4 4 3 2 2 1 0 -0 0 1 2 3 5 7 10 12 13 14 14 14 13 12 12 12 12 13 16 18 21 23 22 20 18 15 12 10 9 9 8 8 8 8 9 9 10 10 11 12 13 14 15 15 15 14 13 12 12 11 11 10 10 9 9 9 9
8 8 8 8 8 8 8 8 8 8 8 8 8 8 8 8 8 7 7 7 7 6 5 5 4 3 2 2 1 0 0 0 1 2 4 7 9 11 13 14 14 13 12 12 11 11 11 13 16 18 20 21 21 20 18 15 12 10 9 9 8 8 8 8 9 10 11 12 13 13 14 14 14 14 14 13 12 11 10 10 9 9 9 9 9 10
8 9 9 9 9 9 9 9 9 9 8 8 8 8 8 8 8 8 8 7 7 7 7 6 5 5 4 3 2 1 1 1 1 1 2 4 6 9 11 13 14 14 13 12 11 10 9 11 12 15 18 19 20 20 19 17 14 12 10 9 8 8 8 8 9 9 10 11 12 13 13 13 13 13 13 12 11 10 9 8 8 8 8 9 10 11
8 9 9 9 9 9 9 9 9 9 9 9 8 8 8 8 8 8 8 8 8 8 8 7 7 6 5 4 3 3 2 1 1 1 1 2 4 6 9 11 13 14 15 14 12 11 9 9 10 12 15 17 18 19 20 19 17 14 11 10 8 8 7 8 8 9 10 11 11 12 12 12 12 12 12 11 11 10 8 7 7 7 9 10 11 12
8 8 9 9 9 9 9 9 9 9 9 9 9 8 8 8 8 8 8 9 9 9 9 8 8 7 7 5 5 4 3 2 1 1 1 1 2 4 6 9 11 14 15 16 15 13 11 9 9 10 14 16 17 18 20 20 19 17 13 11 9 8 7 8 8 8 9 10 11 11 11 12 12 12 11 11 10 9 8 6 6 7 9 10 12 13
Height
5658 5657 5657 5657 5657 5657 5655 5654 5654 5654 5654 5653 5653 5653 5653 5653 5654 5654 5654 5654 5655 5654 5653 5653 5653 5653 5653 5653 5653 5653 5653 5653 5653 5652 5652 5652 5651 5651 5651 5650 5649 5649 5648 5647 5646 5646 5645 5644 5643 5643 5642 5642 5641 5641 5640 5639 5639 5638 5638 5637 5636 5635 5634 5633 5632 5631 5630 5630 5629 5628 5628 5627 5627 5626 5625 5624 5624 5623 5623 5622 5621 5621 5620 5619 5619 5618
5653 5653 5652 5652 5652 5651 5649 5648 5648 5648 5648 5648 5648 5648 5649 5649 5648 5648 5649 5649 5650 5650 5649 5648 5648 5648 5648 5648 5648 5648 5648 5648 5648 5647 5646 5646 5645 5645 5644 5644 5643 5643 5642 5641 5640 5639 5639 5638 5637 5637 5636 5635 5635 5634 5633 5633 5632 5632 5631 5630 5629 5628 5628 5627 5626 5625 5624 5624 5623 5622 5622 5621 5621 5620 5619 5619 5618 5618 5617 5616 5616 5615 5615 5614 5614 5613
5648 5647 5646 5646 5646 5646 5645 5643 5642 5641 5642 5643 5643 5643 5644 5644 5644 5643 5643 5644 5645 5645 5645 5644 5643 5643 5642 5642 5643 5643 5643 5643 5642 5642 5641 5640 5640 5639 5639 5638 5638 5637 5636 5635 5635 5634 5633 5632 5632 5631 5630 5629 5628 5628 5627 5627 5626 5625 5625 5624 5623 5623 5622 5621 5620 5619 5618 5618 5617 5617 5616 5615 5615 5614 5613 5613 5613 5612 5611 5611 5610 5610 5609 5609 5608 5608
5644 5643 5641 5639 5639 5639 5639 5638 5636 5636 5636 5637 5638 5638 5639 5639 5639 5638 5638 5638 5638 5639 5639 5639 5638 5637 5636 5636 5637 5637 5638 5637 5637 5636 5635 5635 5634 5633 5633 5632 5632 5631 5630 5630 5629 5628 5627 5626 5626 5625 5624 5623 5623 5622 5621 5621 5620 5620 5619 5618 5617 5617 5616 5615 5614 5613 5613 5612 5612 5611 5610 5610 5609 5608 5608 5608 5607 5606 5606 5605 5605 5605 5604 5604 5603 5603
5638 5638 5638 5636 5634 5633 5632 5632 5631 5631 5631 5632 5633 5634 5634 5634 5634 5633 5633 5633 5633 5632 5632 5632 5632 5632 5631 5630 5631 5631 5631 5631 5630 5630 5629 5628 5628 5627 5627 5626 5625 5624 5623 5623 5622 5621 5621 5620 5619 5618 5618 5617 5616 5616 5615 5615 5614 5613 5613 5612 5611 5611 5610 5609 5609 5608 5608 5607 5607 5606 5605 5605 5604 5603 5603 5603 5602 5602 5601 5600 5600 5600 5599 5599 5598 5598
5631 5632 5633 5632 5631 5629 5627 5626 5627 5627 5627 5627 5628 5628 5628 5628 5628 5628 5628 5628 5627 5626 5626 5626 5626 5626 5625 5625 5625 5625 5625 5625 5624 5623 5623 5622 5622 5621 5620 5619 5618 5618 5617 5616 5616 5615 5614 5613 5613 5612 5612 5611 5611 5610 5610 5609 5609 5608 5608 5607 5606 5605 5605 5604 5603 5603 5603 5602 5601 5601 5600 5600 5599 5599 5598 5598 5597 5597 5596 5596 5595 5595 5594 5594 5593 5593
5625 5626 5626 5627 5627 5625 5624 5623 5623 5623 5623 5623 5623 5623 5623 5623 5623 5623 5623 5623 5622 5621 5620 5620 5619 5619 5619 5619 5619 5618 5618 5618 5618 5617 5616 5616 5615 5615 5614 5613 5613 5612 5611 5611 5610 5609 5608 5608 5607 5607 5606 5606 5606 5605 5605 5604 5603 5603 5602 5602 5601 5600 5599 5599 5598 5598 5597 5597 5596 5596 5595 5595 5594 5594 5593 5593 5593 5592 5592 5591 5590 5590 5589 5589 5588 5588
5618 5619 5619 5620 5620 5620 5620 5620 5619 5619 5619 5619 5618 5618 5617 5617 5617 5617 5617 5617 5617 5617 5616 5615 5614 5613 5613 5613 5613 5613 5612 5612 5611 5611 5610 5610 5610 5609 5608 5608 5607 5606 5606 5605 5604 5604 5603 5603 5602 5602 5601 5601 5601 5600 5600 5599 5598 5598 5597 5596 5596 5595 5594 5594 5593 5593 5592 5592 5591 5591 5590 5590 5589 5589 5588 5588 5587 5587 5586 5586 5585 5584 5584 5583 5583 5582
5612 5612 5612 5613 5613 5613 5613 5613 5613 5613 5613 5613 5613 5612 5611 5611 5611 5611 5611 5611 5611 5611 5611 5610 5610 5609 5608 5607 5607 5606 5606 5605 5605 5605 5605 5604 5604 5603 5603 5602 5602 5601 5600 5599 5599 5598 5598 5597 5597 5597 5596 5596 5595 5595 5594 5594 5593 5592 5592 5591 5590 5590 5589 5588 5588 5588 5587 5586 5586 5585 5585 5584 5584 5583 5583 5582 5582 5581 5581 5580 5579 5579 5578 5578 5577 5576
5607 5607 5606 5606 5607 5607 5607 5607 5606 5606 5607 5608 5607 5606 5605 5605 5605 5605 5605 5606 5606 5606 5606 5606 5605 5604 5603 5602 5602 5601 5600 5599 5598 5598 5598 5598 5598 5598 5597 5597 5596 5595 5595 5594 5593 5593 5592 5592 5591 5591 5591 5591 5590 5589 5589 5588 5588 5587 5586 5586 5585 5584 5584 5583 5583 5582 5582 5581 5580 5580 5579 5579 5578 5578 5577 5577 5576 5575 5575 5574 5574 5573 5573 5572 5571 5570
5602 5602 5602 5602 5602 5602 5603 5602 5600 5600 5600 5601 5601 5600 5599 5600 5600 5600 5600 5600 5600 5600 5600 5600 5600 5598 5598 5598 5597 5597 5596 5595 5593 5593 5592 5592 5592 5591 5591 5591 5590 5590 5589 5589 5588 5587 5587 5586 5586 5586 5586 5585 5585 5584 5583 5583 5582 5581 5581 5580 5579 5579 5578 5578 5577 5577 5576 5575 5575 5574 5573 5573 5573 5572 5571 5571 5570 5570 5569 5568 5568 5567 5567 5566 5565 5565
5598 5598 5598 5598 5598 5598 5598 5597 5596 5595 5595 5595 5595 5594 5594 5594 5595 5595 5595 5594 5593 5594 5595 5595 5594 5593 5592 5592 5592 5591 5591 5591 5590 5588 5587 5586 5586 5585 5585 5585 5585 5584 5584 5583 5582 5582 5581 5581 5581 5580 5580 5580 5579 5578 5578 5577 5576 5576 5575 5574 5573 5573 5573 5572 5571 5571 5570 5569 5569 5568 5568 5567 5567 5566 5565 5565 5564 5564 5563 5563 5562 5562 5561 5560 5560 5559
5593 5593 5593 5593 5593 5593 5593 5592 5592 5591 5590 5590 5590 5589 5589 5589 5590 5591 5591 5589 5588 5588 5589 5589 5588 5587 5586 5586 5586 5586 5586 5585 5585 5584 5583 5582 5582 5581 5580 5579 5579 5578 5578 5577 5577 5576 5575 5576 5576 5575 5575 5574 5573 5572 5572 5571 5570 5570 5569 5568 5568 5567 5567 5566 5565 5565 5564 5563 5563 5562 5562 5561 5561 5560 5560 5559 5558 5558 5558 5557 5556 5556 5555 5555 5554 5554
5588 5589 5589 5588 5588 5588 5588 5588 5587 5587 5586 5586 5586 5585 5585 5585 5585 5586 5586 5585 5583 5583 5583 5584 5583 5582 5581 5581 5581 5581 5580 5580 5579 5579 5579 5578 5577 5577 5576 5575 5574 5573 5572 5572 5571 5570 5570 5570 5571 5570 5569 5568 5568 5567 5566 5565 5565 5564 5563 5563 5562 5562 5561 5560 5560 5559 5558 5558 5557 5557 5556 5556 5555 5555 5554 5554 5553 5553 5552 5552 5551 5551 5550 5550 5549 5549
5584 5584 5584 5584 5583 5583 5583 5583 5583 5583 5582 5582 5582 5582 5582 5581 5581 5581 5581 5580 5579 5578 5578 5579 5578 5577 5576 5576 5576 5576 5575 5575 5575 5574 5574 5573 5572 5572 5572 5572 5570 5568 5567 5567 5566 5565 5564 5565 5565 5565 5564 5563 5562 5562 5561 5560 5559 5558 5558 5558 5557 5556 5556 5555 5554 5554 5553 5553 5552 5552 5551 5551 5550 5550 5549 5549 5548 5548 5547 5547 5546 5546 5545 5545 5544 5544
5580 5580 5580 5579 5579 5579 5579 5579 5579 5578 5578 5578 5578 5578 5578 5577 5576 5576 5576 5575 5574 5573 5573 5573 5573 5572 5571 5571 5571 5571 5571 5571 5570 5570 5569 5568 5567 5566 5567 5568 5567 5565 5563 5563 5563 5561 5560 5560 5560 5560 5559 5558 5557 5556 5556 5555 5554 5554 5553 5553 5552 5551 5551 5550 5549 5549 5548 5548 5548 5547 5547 5546 5546 5545 5545 5544 5544 5543 5543 5543 5542 5542 5541 5541 5540 5540
5576 5576 5575 5575 5575 5574 5574 5575 5574 5574 5573 5573 5573 5573 5573 5572 5572 5571 5571 5571 5570 5569 5569 5568 5568 5567 5566 5566 5565 5566 5567 5567 5566 5565 5565 5564 5562 5560 5561 5563 5563 5561 5558 5558 5558 5558 5557 5556 5556 5555 5554 5553 5552 5552 5551 5550 5550 5549 5549 5548 5548 5547 5546 5546 5545 5544 5544 5543 5543 5543 5543 5542 5542 5541 5541 5540 5540 5539 5539 5538 5538 5538 5537 5537 5536 5535
5572 5572 5571 5571 5570 5570 5570 5570 5570 5569 5569 5569 5569 5568 5568 5568 5568 5567 5567 5566 5565 5565 5564 5564 5563 5563 5562 5561 5560 5560 5562 5563 5563 5561 5560 5559 5557 5555 5555 5558 5558 5557 5554 5553 5553 5553 5553 5553 5552 5551 5550 5549 5548 5547 5547 5546 5545 5545 5544 5544 5543 5543 5542 5541 5541 5540 5540 5540 5539 5539 5538 5538 5538 5537 5537 5536 5536 5535 5535 5535 5534 5533 5533 5532 5532 5531
5568 5568 5568 5567 5566 5566 5566 5566 5565 5565 5565 5564 5564 5564 5563 5563 5563 5563 5562 5562 5561 5561 5560 5559 5559 5558 5558 5557 5556 5555 5557 5559 5559 5557 5556 5555 5553 5551 5551 5553 5553 5552 5550 5549 5549 5548 5548 5548 5547 5546 5545 5545 5544 5543 5543 5542 5542 5541 5540 5539 5539 5538 5538 5537 5537 5537 5536 5536 5536 5535 5535 5534 5534 5533 5533 5533 5532 5532 5531 5530 5530 5529 5529 5528 5527 5527
5564 5564 5564 5563 5563 5562 5562 5562 5562 5561 5561 5560 5560 5560 5559 5558 5558 5558 5558 5557 5557 5557 5556 5555 5554 5554 5553 5553 5552 5552 5553 5554 5554 5553 5552 5551 5549 5547 5547 5548 5548 5548 5546 5545 5544 5544 5544 5543 5542 5542 5541 5541 5540 5539 5539 5538 5538 5537 5536 5535 5535 5534 5534 5533 5533 5533 5533 5532 5532 5531 5531 5530 5530 5529 5529 5528 5528 5527 5527 5526 5526 5525 5524 5523 5523 5522
5560 5560 5560 5560 5560 5559 5558 5558 5558 5557 5557 5556 5556 5556 5555 5554 5554 5554 5553 5553 5553 5552 5552 5551 5550 5549 5549 5549 5548 5548 5548 5550 5550 5549 5548 5547 5545 5543 5543 5544 5544 5544 5542 5541 5540 5540 5540 5539 5538 5537 5537 5537 5536 5536 5535 5534 5534 5533 5532 5532 5531 5531 5530 5530 5529 5529 5529 5528 5528 5527 5527 5526 5526 5525 5525 5524 5523 5523 5522 5522 5521 5520 5520 5519 5518 5518
5557 5557 5557 5557 5556 5555 5555 5554 5554 5553 5553 5552 5552 5552 5551 5551 5550 5550 5549 5549 5549 5548 5548 5547 5546 5546 5545 5545 5544 5544 5545 5546 5546 5545 5544 5543 5541 5539 5539 5540 5541 5540 5539 5538 5537 5536 5536 5535 5534 5533 5533 5533 5533 5532 5531 5531 5530 5529 5528 5528 5528 5527 5527 5526 5526 5526 5525 5524 5524 5523 5523 5522 5522 5521 5520 5520 5519 5518 5518 5517 5516 5516 5515 5514 5513 5513
5554 5554 5553 5553 5552 5552 5551 5550 5550 5549 5549 5549 5548 5548 5548 5547 5547 5546 5546 5546 5545 5544 5544 5543 5543 5542 5541 5541 5540 5540 5541 5541 5541 5541 5541 5539 5537 5536 5536 5537 5537 5536 5535 5534 5533 5532 5532 5530 5529 5529 5529 5529 5528 5528 5528 5527 5526 5525 5525 5524 5524 5524 5523 5523 5523 5522 5522 5521 5520 5520 5519 5518 5518 5517 5516 5516 5515 5514 5513 5513 5512 5511 5510 5510 5509 5508
5551 5550 5550 5549 5548 5548 5547 5547 5546 5546 5545 5545 5544 5544 5543 5543 5543 5542 5542 5542 5541 5541 5540 5539 5538 5538 5537 5537 5537 5536 5536 5537 5537 5537 5537 5535 5534 5533 5533 5533 5533 5533 5531 5530 5530 5529 5528 5526 5525 5525 5525 5525 5524 5524 5523 5523 5522 5522 5521 5521 5521 5520 5520 5519 5519 5518 5518 5517 5517 5516 5515 5514 5514 5513 5512 5511 5511 5510 5509 5508 5508 5507 5506 5505 5505 5504
5548 5547 5547 5546 5545 5545 5544 5543 5543 5543 5542 5542 5541 5541 5540 5540 5539 5539 5538 5538 5538 5537 5536 5536 5535 5534 5533 5533 5533 5533 5532 5533 5533 5533 5533 5532 5531 5530 5530 5530 5530 5529 5528 5527 5526 5525 5524 5523 5522 5521 5521 5521 5520 5520 5519 5519 5518 5518 5518 5517 5517 5517 5516 5516 5515 5514 5514 5513 5513 5512 5511 5510 5509 5509 5508 5507 5506 5506 5505 5504 5503 5503 5502 5501 5500 5500
5545 5544 5543 5543 5542 5542 5541 5541 5540 5540 5539 5538 5538 5537 5537 5536 5536 5535 5535 5535 5534 5534 5533 5532 5531 5530 5530 5530 5529 5529 5528 5529 5530 5530 5529 5528 5528 5527 5527 5527 5527 5526 5525 5524 5523 5522 5521 5520 5518 5518 5517 5517 5516 5516 5515 5515 5514 5514 5514 5513 5513 5513 5512 5512 5511 5511 5510 5509 5508 5508 5507 5506 5505 5504 5504 5503 5502 5501 5501 5500 5499 5498 5498 5497 5496 5496
5543 5542 5541 5540 5540 5539 5538 5538 5537 5537 5536 5536 5535 5534 5534 5533 5533 5533 5532 5532 5531 5531 5529 5529 5528 5527 5527 5526 5525 5525 5525 5526 5526 5526 5526 5525 5524 5523 5523 5523 5523 5523 5522 5521 5520 5519 5518 5517 5515 5514 5514 5513 5512 5512 5511 5511 5510 5510 5510 5509 5509 5509 5508 5508 5507 5507 5506 5505 5504 5503 5503 5502 5501 5500 5499 5499 5498 5497 5496 5495 5495 5494 5493 5493 5492 5492
5540 5539 5539 5538 5537 5537 5536 5535 5535 5534 5533 5533 5532 5532 5531 5530 5530 5529 5528 5528 5528 5527 5526 5526 5525 5524 5523 5523 5522 5522 5522 5522 5522 5522 5522 5522 5521 5520 5520 5520 5520 5519 5519 5518 5517 5516 5515 5513 5512 5511 5510 5509 5508 5508 5507 5507 5506 5506 5506 5505 5505 5504 5504 5503 5503 5502 5502 5501 5500 5499 5498 5498 5497 5496 5495 5494 5494 5493 5492 5491 5490 5490 5489 5488 5488 5487
5538 5538 5537 5536 5535 5534 5534 5533 5532 5532 5531 5530 5530 5529 5528 5528 5527 5526 5525 5525 5525 5524 5523 5523 5522 5521 5520 5519 5519 5518 5518 5518 5518 5518 5518 5518 5517 5516 5517 5516 5516 5516 5516 5515 5514 5513 5512 5510 5509 5508 5507 5506 5505 5504 5503 5503 5502 5502 5502 5501 5501 5500 5500 5499 5499 5498 5497 5497 5496 5495 5494 5493 5493 5492 5491 5490 5489 5488 5488 5487 5486 5485 5485 5484 5484 5483
5536 5535 5535 5534 5533 5532 5531 5531 5530 5529 5528 5528 5527 5526 5525 5525 5524 5523 5523 5522 5522 5521 5520 5519 5518 5518 5517 5516 5516 5515 5514 5514 5515 5515 5515 5514 5513 5513 5513 5513 5512 5512 5512 5511 5511 5510 5509 5507 5506 5505 5503 5502 5501 5500 5499 5498 5498 5498 5497 5497 5497 5496 5495 5495 5494 5494 5493 5492 5491 5491 5490 5489 5488 5488 5487 5486 5485 5484 5483 5483 5482 5481 5480 5480 5479 5478
5534 5533 5533 5532 5531 5530 5529 5528 5527 5527 5526 5525 5524 5523 5523 5522 5521 5520 5519 5519 5518 5518 5517 5516 5515 5515 5514 5513 5513 5512 5510 5511 5511 5512 5512 5511 5509 5509 5509 5509 5508 5508 5508 5508 5507 5506 5506 5505 5503 5502 5500 5499 5497 5496 5495 5495 5494 5493 5493 5493 5492 5491 5491 5491 5490 5489 5488 5488 5487 5486 5485 5485 5484 5483 5483 5482 5481 5480 5479 5478 5477 5477 5476 5476 5475 5474
5533 5532 5531 5530 5529 5528 5527 5526 5525 5524 5523 5523 5522 5521 5520 5519 5518 5518 5517 5516 5515 5515 5514 5513 5512 5512 5511 5510 5509 5508 5507 5507 5508 5508 5508 5507 5506 5506 5506 5505 5504 5503 5503 5504 5503 5503 5502 5501 5500 5499 5497 5495 5494 5493 5492 5491 5490 5489 5489 5488 5488 5487 5486 5486 5485 5485 5484 5483 5483 5482 5481 5480 5480 5479 5478 5477 5476 5476 5474 5474 5473 5472 5472 5471 5471 5470
5531 5530 5529 5528 5527 5526 5525 5524 5523 5522 5521 5520 5519 5518 5518 5517 5516 5515 5514 5513 5512 5512 5511 5510 5509 5508 5508 5507 5506 5505 5504 5504 5504 5504 5504 5503 5502 5502 5502 5501 5500 5499 5499 5499 5499 5498 5498 5497 5497 5496 5494 5493 5491 5489 5488 5487 5486 5486 5485 5484 5483 5482 5482 5481 5481 5480 5479 5479 5478 5477 5477 5476 5475 5475 5474 5473 5472 5471 5470 5469 5468 5468 5467 5467 5466 5466
5529 5528 5527 5526 5525 5524 5523 5522 5521 5520 5519 5518 5517 5516 5515 5514 5513 5513 5512 5511 5510 5509 5508 5508 5507 5506 5505 5504 5503 5502 5502 5501 5501 5500 5500 5499 5499 5498 5498 5497 5496 5495 5495 5495 5494 5494 5494 5493 5493 5492 5491 5489 5488 5486 5484 5483 5483 5482 5481 5480 5479 5478 5478 5477 5477 5476 5475 5474 5474 5473 5472 5472 5471 5470 5469 5469 5468 5467 5466 5465 5464 5463 5463 5462 5462 5461
5527 5526 5526 5524 5523 5523 5522 5521 5519 5518 5518 5517 5516 5514 5513 5513 5511 5510 5509 5508 5508 5507 5506 5505 5504 5503 5503 5501 5500 5499 5498 5498 5497 5497 5496 5496 5495 5495 5494 5493 5493 5492 5491 5491 5490 5490 5489 5489 5488 5488 5487 5486 5484 5483 5481 5480 5479 5478 5477 5476 5475 5474 5473 5473 5472 5472 5471 5470 5469 5468 5468 5468 5467 5466 5465 5464 5463 5462 5461 5460 5459 5459 5458 5458 5457 5456
5525 5524 5523 5523 5522 5521 5520 5519 5518 5517 5516 5515 5513 5513 5512 5510 5509 5508 5507 5506 5505 5504 5503 5502 5501 5500 5500 5499 5498 5497 5496 5495 5494 5494 5493 5492 5492 5491 5490 5489 5489 5488 5488 5487 5486 5486 5485 5485 5484 5484 5483 5482 5480 5479 5478 5476 5475 5474 5473 5472 5471 5470 5469 5468 5468 5467 5467 5466 5465 5464 5464 5463 5462 5462 5461 5460 5459 5458 5457 5456 5455 5454 5453 5453 5452 5452
5523 5522 5521 5521 5520 5519 5518 5517 5516 5515 5514 5513 5512 5510 5509 5508 5507 5506 5505 5504 5503 5502 5501 5500 5499 5498 5497 5496 5495 5494 5493 5492 5491 5491 5490 5489 5488 5488 5487 5486 5485 5485 5484 5483 5483 5482 5482 5481 5480 5480 5479 5478 5477 5475 5474 5473 5472 5470 5469 5468 5467 5466 5465 5464 5464 5463 5463 5462 5461 5460 5460 5459 5458 5457 5456 5455 5454 5453 5452 5451 5450 5449 5448 5448 5447 5446
5520 5519 5519 5518 5518 5517 5516 5515 5514 5513 5512 5511 5509 5508 5507 5506 5505 5504 5503 5502 5501 5500 5498 5498 5496 5495 5494 5493 5492 5491 5490 5489 5488 5488 5487 5486 5485 5485 5484 5483 5482 5481 5481 5480 5479 5478 5478 5477 5477 5476 5475 5474 5473 5472 5471 5469 5468 5467 5466 5465 5464 5463 5461 5460 5460 5459 5458 5458 5457 5457 5456 5455 5454 5453 5452 5451 5450 5448 5448 5446 5445 5444 5444 5443 5442 5441
5518 5517 5516 5516 5515 5514 5513 5513 5512 5510 5509 5508 5507 5506 5505 5504 5503 5502 5501 5500 5498 5498 5496 5495 5494 5493 5492 5491 5490 5489 5488 5487 5486 5485 5484 5483 5482 5482 5481 5480 5479 5478 5477 5477 5476 5475 5474 5474 5473 5472 5472 5471 5469 5468 5467 5466 5465 5464 5463 5462 5461 5459 5458 5457 5456 5455 5455 5454 5453 5453 5452 5451 5450 5449 5448 5447 5445 5444 5443 5442 5441 5440 5439 5438 5437 5437
5515 5515 5514 5513 5513 5512 5511 5510 5509 5508 5507 5506 5505 5504 5503 5502 5501 5500 5499 5498 5497 5495 5494 5493 5492 5491 5489 5488 5488 5487 5486 5484 5483 5483 5482 5481 5480 5479 5478 5477 5476 5475 5474 5473 5473 5472 5471 5470 5469 5468 5468 5467 5466 5465 5464 5463 5462 5461 5460 5459 5458 5456 5455 5453 5452 5452 5451 5450 5450 5449 5448 5447 5446 5445 5443 5442 5441 5440 5438 5437 5436 5435 5434 5433 5433 5432
5513 5512 5512 5511 5510 5509 5508 5507 5506 5506 5505 5504 5503 5502 5501 5500 5499 5498 5497 5495 5494 5493 5492 5491 5490 5488 5487 5486 5485 5484 5483 5482 5481 5480 5479 5478 5477 5476 5475 5474 5473 5472 5471 5470 5469 5468 5468 5467 5466 5465 5464 5464 5463 5462 5461 5459 5458 5458 5457 5456 5455 5453 5452 5450 5449 5448 5448 5447 5446 5445 5444 5443 5442 5441 5439 5438 5437 5435 5434 5433 5432 5431 5430 5429 5428 5428
5510 5510 5509 5508 5508 5507 5506 5505 5504 5503 5502 5501 5500 5499 5498 5498 5497 5496 5494 5493 5493 5491 5490 5489 5488 5486 5485 5484 5483 5482 5481 5479 5478 5477 5476 5475 5474 5473 5472 5471 5470 5469 5468 5467 5466 5465 5464 5463 5462 5461 5461 5460 5459 5458 5457 5456 5455 5454 5453 5453 5452 5451 5449 5447 5446 5445 5444 5443 5442 5441 5440 5439 5438 5437 5436 5434 5433 5432 5430 5429 5428 5427 5426 5425 5424 5423
5508 5507 5507 5506 5505 5504 5503 5502 5501 5500 5499 5499 5498 5497 5496 5495 5494 5493 5492 5491 5490 5489 5488 5487 5486 5484 5483 5482 5480 5479 5478 5477 5476 5474 5473 5473 5472 5470 5469 5468 5467 5466 5465 5464 5463 5462 5461 5460 5459 5458 5457 5456 5456 5454 5453 5452 5451 5450 5450 5449 5448 5447 5446 5444 5443 5442 5441 5439 5438 5438 5437 5436 5434 5433 5432 5431 5429 5428 5427 5425 5424 5423 5422 5421 5420 5419
5505 5504 5504 5503 5502 5501 5500 5500 5499 5498 5497 5496 5495 5494 5493 5493 5492 5491 5490 5489 5488 5487 5485 5484 5483 5482 5481 5479 5478 5477 5475 5474 5473 5472 5471 5469 5468 5468 5466 5465 5464 5463 5462 5461 5460 5458 5457 5456 5455 5454 5453 5453 5452 5451 5449 5449 5448 5447 5446 5445 5444 5443 5442 5441 5440 5438 5437 5436 5435 5433 5433 5432 5431 5429 5428 5427 5426 5424 5423 5422 5420 5419 5418 5417 5416 5415
5502 5501 5501 5500 5499 5499 5498 5497 5496 5495 5495 5494 5493 5492 5491 5490 5489 5488 5487 5486 5485 5484 5483 5482 5481 5479 5478 5477 5476 5474 5473 5472 5470 5469 5468 5467 5466 5465 5463 5462 5461 5460 5459 5458 5457 5455 5454 5453 5451 5450 5449 5448 5448 5447 5446 5445 5444 5443 5442 5441 5440 5439 5438 5437 5436 5435 5434 5433 5431 5430 5428 5428 5427 5426 5425 5424 5423 5421 5419 5418 5417 5415 5414 5413 5411 5410
5499 5499 5498 5498 5497 5496 5495 5495 5494 5493 5492 5491 5490 5489 5488 5487 5486 5485 5484 5484 5483 5482 5481 5480 5478 5477 5476 5474 5473 5472 5471 5469 5468 5467 5465 5464 5463 5462 5461 5459 5458 5457 5456 5454 5453 5452 5451 5449 5448 5447 5446 5444 5443 5443 5442 5441 5440 5439 5438 5437 5436 5435 5434 5433 5432 5431 5430 5429 5428 5426 5425 5424 5423 5422 5421 5420 5419 5418 5416 5414 5413 5411 5410 5408 5407 5406
5496 5496 5495 5495 5494 5493 5493 5492 5491 5490 5489 5488 5488 5487 5486 5484 5483 5483 5482 5481 5480 5479 5478 5477 5476 5475 5473 5472 5471 5470 5468 5467 5466 5465 5463 5462 5461 5459 5458 5457 5455 5454 5453 5452 5450 5449 5448 5446 5444 5443 5442 5441 5440 5438 5438 5437 5436 5435 5434 5433 5433 5432 5431 5429 5428 5427 5426 5425 5424 5422 5421 5420 5419 5418 5418 5417 5416 5414 5413 5411 5409 5407 5405 5404 5403 5402
5493 5493 5492 5492 5491 5490 5490 5489 5488 5488 5487 5486 5485 5484 5483 5482 5481 5480 5479 5478 5477 5477 5476 5474 5473 5472 5471 5470 5469 5468 5467 5465 5464 5463 5461 5460 5458 5457 5456 5454 5453 5452 5450 5449 5448 5446 5444 5443 5441 5439 5438 5437 5436 5435 5434 5433 5432 5431 5430 5429 5428 5428 5427 5426 5425 5423 5422 5421 5419 5418 5417 5416 5415 5414 5413 5413 5412 5411 5409 5407 5405 5403 5401 5399 5398 5397
5491 5490 5489 5489 5488 5487 5487 5486 5485 5484 5483 5483 5482 5481 5480 5479 5478 5477 5476 5475 5475 5474 5473 5472 5471 5469 5468 5467 5466 5465 5464 5463 5462 5460 5459 5458 5457 5455 5453 5452 5451 5449 5448 5446 5445 5443 5442 5440 5438 5436 5434 5433 5432 5431 5430 5429 5428 5427 5426 5425 5424 5424 5423 5422 5421 5419 5418 5417 5415 5414 5413 5412 5410 5410 5409 5408 5407 5407 5406 5404 5402 5399 5397 5395 5394 5393
5488 5488 5487 5486 5485 5484 5484 5483 5482 5482 5481 5480 5479 5478 5477 5476 5475 5475 5474 5473 5472 5471 5470 5469 5468 5467 5466 5464 5463 5462 5461 5460 5459 5458 5456 5455 5454 5453 5451 5450 5448 5447 5445 5444 5443 5441 5439 5438 5436 5433 5431 5429 5428 5428 5426 5425 5424 5423 5422 5421 5420 5420 5419 5418 5417 5416 5414 5413 5412 5410 5409 5408 5406 5405 5404 5403 5403 5402 5401 5400 5398 5396 5393 5391 5389 5388
5485 5485 5484 5483 5483 5482 5481 5480 5480 5479 5478 5477 5476 5475 5474 5473 5473 5472 5471 5470 5469 5468 5467 5466 5465 5464 5463 5462 5461 5459 5458 5457 5456 5455 5453 5452 5451 5450 5449 5447 5446 5444 5443 5441 5440 5438 5437 5435 5433 5431 5428 5426 5425 5424 5423 5421 5420 5419 5418 5417 5417 5416 5415 5414 5413 5412 5411 5409 5408 5406 5405 5403 5402 5401 5400 5399 5398 5397 5397 5396 5394 5392 5389 5387 5385 5384